CAPE
13 86 371 303 312 227 167 326 133 39 85 91 239 300 245 197 290 469 124 15 147 145 237 116 22 9 6 5 49 36 3 1 0 0 0 0 0 0 0 0 0 0 0 0 0 0 0 0 7
591 129 151 207 127 118 164 104 67 70 125 85 187 250 292 350 249 267 70 68 245 299 289 165 53 1 1 0 0 0 0 0 0 0 0 0 0 0 0 0 0 0 0 0 0 0 0 0 0
373 99 152 57 131 20 77 43 32 0 0 1 28 153 262 318 248 71 217 192 269 287 325 46 0 0 0 0 0 0 0 0 0 0 0 0 0 0 0 0 0 0 0 0 0 0 0 0 0
301 237 217 191 26 10 43 14 0 0 0 0 9 265 272 151 105 151 159 197 201 181 67 0 0 0 0 0 0 0 0 0 0 0 0 0 0 0 0 0 0 0 0 0 0 0 0 0 0
109 197 147 116 36 5 0 0 13 0 0 0 8 182 321 277 174 232 310 65 43 27 10 0 0 0 0 0 0 0 0 0 0 0 0 0 0 0 0 0 0 0 0 0 0 0 0 0 0
167 95 55 53 7 10 7 23 4 1 0 0 26 246 548 359 338 258 163 109 44 59 3 0 0 0 0 0 0 0 0 0 0 0 0 0 0 0 0 0 0 0 0 0 0 0 0 0 0
159 17 27 36 27 43 7 33 77 9 29 0 0 147 624 376 309 342 192 184 94 55 21 0 0 0 0 0 0 0 0 0 0 0 0 0 0 0 0 0 0 0 0 0 0 0 0 0 0
74 26 26 36 59 26 0 11 9 19 30 0 0 35 587 402 279 232 91 82 54 57 27 19 0 0 0 0 0 0 0 0 0 0 0 0 0 0 0 0 0 0 0 0 0 0 0 0 0
7 55 16 25 14 9 7 55 0 0 23 0 18 61 287 458 287 161 154 83 77 32 27 26 24 4 1 5 0 0 0 0 0 0 0 0 0 0 0 0 0 0 0 0 0 0 0 0 0
87 46 44 39 5 53 8 100 145 88 17 81 241 518 494 455 336 207 126 106 59 15 18 15 0 0 0 0 0 0 7 17 9 0 0 0 0 0 0 0 0 0 0 0 0 0 0 0 0
77 2 10 11 35 28 153 78 108 170 275 197 293 730 549 434 380 250 129 87 38 9 1 4 0 0 0 0 0 7 14 16 21 0 0 3 0 5 1 1 3 0 0 1 0 0 0 0 0
230 2 58 74 140 145 153 160 225 204 249 551 233 740 708 475 421 340 116 66 22 11 1 1 0 0 0 0 0 0 4 10 13 18 0 13 9 13 12 10 1 0 2 0 4 1 1 0 0
164 74 83 64 95 160 176 110 184 252 265 822 457 725 854 546 416 319 148 18 5 16 18 9 0 0 0 0 2 0 8 22 14 9 9 9 15 14 23 19 12 5 3 6 4 2 0 0 0
35 47 56 77 114 215 200 204 188 179 300 850 599 709 815 575 424 313 117 0 1 7 8 17 5 0 0 0 0 2 19 15 19 16 13 25 28 38 26 14 13 22 18 21 12 4 0 0 1
38 41 75 110 131 333 421 292 292 372 501 836 753 747 714 593 402 335 150 55 5 16 80 46 0 0 0 0 0 0 25 41 30 54 51 53 69 102 85 45 23 19 31 27 15 16 11 5 7
47 70 123 132 104 317 520 161 372 521 699 776 676 796 682 605 417 354 221 166 59 85 112 53 0 0 0 0 9 32 17 34 56 56 92 103 108 129 91 48 35 50 41 36 16 18 14 24 27
58 49 78 81 128 122 631 149 1036 995 847 763 596 764 743 578 468 334 264 207 155 151 97 32 17 0 0 36 130 173 171 128 74 81 77 114 123 89 65 51 34 54 32 31 27 27 23 17 28
0 9 23 71 27 124 77 240 222 1174 1108 892 664 685 790 675 454 353 322 249 248 197 143 75 50 72 75 67 141 158 111 98 92 72 89 65 40 52 56 46 56 142 90 55 82 47 34 54 35
0 0 24 37 84 55 56 83 141 279 1380 1194 833 706 763 728 476 446 361 278 211 214 137 125 185 196 216 254 219 116 135 193 155 57 66 56 44 20 15 33 46 87 76 136 250 236 73 52 72
0 9 26 4 45 87 34 22 89 104 229 438 748 892 928 789 474 344 296 251 190 183 201 289 418 509 622 556 479 562 367 38 0 0 3 27 57 23 13 14 15 16 12 22 19 71 170 181 159
29 17 0 3 15 96 46 21 182 23 615 603 770 928 999 978 633 390 283 224 214 168 268 535 715 869 937 766 771 617 408 131 67 45 23 72 33 63 47 48 44 37 35 21 51 36 21 86 215
17 21 9 6 30 55 176 70 115 36 220 178 588 1049 1091 1086 939 629 436 500 353 294 381 738 997 1028 1107 1228 597 261 29 0 1 13 45 78 80 87 43 44 50 55 24 39 27 61 31 65 192
34 22 0 4 5 80 67 12 0 0 144 90 297 278 573 917 1091 945 376 437 501 385 94 0 675 166 981 1061 394 0 55 38 17 30 119 174 149 148 64 56 38 58 24 33 16 42 35 76 174
0 1 2 19 10 1 33 11 0 27 34 0 0 19 245 559 1245 1142 647 743 670 441 167 452 294 971 474 107 52 119 136 189 195 204 188 104 182 88 91 80 56 82 67 30 19 44 47 97 139
1 29 12 56 1 49 90 24 85 0 0 0 1 20 332 815 1197 1225 1119 1264 1171 1198 1042 510 698 391 46 8 21 146 223 392 571 456 295 241 190 91 106 145 92 80 41 38 24 36 52 64 128
49 33 52 20 0 5 25 93 41 0 5 11 35 71 201 511 624 800 1020 891 737 379 100 35 52 0 7 85 152 334 447 397 333 357 478 520 275 73 235 167 83 53 45 38 21 42 61 98 146
23 62 20 87 10 25 79 11 0 0 3 35 125 199 207 370 459 642 626 558 111 10 38 11 0 0 0 0 301 312 360 399 388 345 292 229 185 93 55 26 28 17 31 39 58 59 79 104 168
38 93 46 48 46 53 103 17 70 9 37 75 91 218 278 253 417 535 586 366 184 11 0 0 0 0 3 93 132 171 151 166 67 9 10 29 26 23 22 17 28 27 26 20 24 40 63 101 153
0 74 1 18 86 82 83 0 14 20 58 94 93 192 334 454 388 140 42 78 9 0 0 1 4 22 43 58 101 88 48 9 10 12 23 26 25 24 21 21 35 37 20 30 22 31 78 153 164
21 55 81 45 48 29 90 90 0 29 43 7 6 115 279 329 330 36 0 0 0 0 0 1 0 24 41 41 6 0 1 4 12 14 22 22 25 26 24 30 23 26 21 45 37 32 108 121 213
CIN
-40 -217 -98 -35 -4 -1 -7 -1 -6 -10 -4 -4 -19 -2 -13 -27 -8 -4 -26 -5 -11 -1 -0 -0 -10 -27 -39 -2 -19 -27 -0 -0 -0 -0 -0 -0 -0 -0 -0 -0 -0 -0 -0 -0 -0 -0 -0 -0 -84
-20 -32 -47 -8 -14 -7 -6 -5 -12 -9 -20 -23 -16 -6 -1 -7 -29 -42 -60 -32 -2 -0 -0 -0 -5 -0 -0 -0 -0 -0 -0 -0 -0 -0 -0 -0 -0 -0 -0 -0 -0 -0 -0 -0 -0 -0 -0 -0 -0
-119 -61 -35 -62 -17 -214 -7 -18 -11 -0 -0 -13 -19 -8 -2 -18 -19 -64 -28 -7 -2 -0 -0 -15 -0 -0 -0 -0 -0 -0 -0 -0 -0 -0 -0 -0 -0 -0 -0 -0 -0 -0 -0 -0 -0 -0 -0 -0 -0
-15 -6 -9 -1 -12 -13 -44 -20 -0 -0 -0 -0 -5 -11 -44 -49 -57 -53 -26 -12 -13 -10 -18 -0 -0 -0 -0 -0 -0 -0 -0 -0 -0 -0 -0 -0 -0 -0 -0 -0 -0 -0 -0 -0 -0 -0 -0 -0 -0
-65 -9 -21 -9 -21 -57 -0 -0 -1 -0 -0 -0 -40 -6 -48 -50 -66 -39 -17 -38 -30 -49 -2 -0 -0 -0 -0 -0 -0 -0 -0 -0 -0 -0 -0 -0 -0 -0 -0 -0 -0 -0 -0 -0 -0 -0 -0 -0 -0
-17 -4 -3 -4 -1 -1 -0 -16 -11 -0 -0 -0 -33 -3 -27 -60 -51 -43 -38 -47 -37 -40 -2 -0 -0 -0 -0 -0 -0 -0 -0 -0 -0 -0 -0 -0 -0 -0 -0 -0 -0 -0 -0 -0 -0 -0 -0 -0 -0
-11 -9 -5 -1 -2 -2 -1 -7 -9 -1 -3 -0 -0 -12 -53 -60 -50 -35 -28 -18 -18 -7 -2 -0 -0 -0 -0 -0 -0 -0 -0 -0 -0 -0 -0 -0 -0 -0 -0 -0 -0 -0 -0 -0 -0 -0 -0 -0 -0
-20 -6 -4 -3 -2 -1 -0 -1 -3 -2 -9 -0 -0 -2 -18 -80 -64 -17 -38 -20 -4 -1 -2 -2 -0 -0 -0 -0 -0 -0 -0 -0 -0 -0 -0 -0 -0 -0 -0 -0 -0 -0 -0 -0 -0 -0 -0 -0 -0
-22 -6 -10 -9 -9 -7 -6 -27 -0 -0 -4 -0 -7 -3 -26 -76 -49 -8 -13 -39 -2 -3 -3 -3 -3 -1 -1 -4 -0 -0 -0 -0 -0 -0 -0 -0 -0 -0 -0 -0 -0 -0 -0 -0 -0 -0 -0 -0 -0
-7 -8 -9 -3 -4 -11 -4 -14 -5 -11 -28 -19 -29 -43 -70 -75 -52 -19 -35 -62 -2 -2 -2 -3 -0 -0 -0 -0 -0 -0 -1 -3 -4 -0 -0 -0 -0 -0 -0 -0 -0 -0 -0 -0 -0 -0 -0 -0 -0
-4 -32 -6 -19 -6 -25 -5 -9 -3 -2 -2 -2 -2 -21 -71 -55 -34 -16 -10 -3 -2 -5 -3 -1 -0 -0 -0 -0 -0 -1 -1 -1 -3 -0 -0 -2 -0 -2 -0 -1 -5 -0 -0 -0 -0 -0 -0 -0 -0
-5 -4 -3 -6 -3 -7 -2 -3 -4 -2 -2 -12 -9 -4 -56 -59 -40 -19 -11 -1 -3 -4 -1 -1 -0 -0 -0 -0 -0 -0 -1 -1 -2 -3 -0 -1 -1 -2 -1 -1 -0 -0 -0 -0 -1 -2 -1 -0 -0
-5 -5 -4 -10 -28 -12 -3 -3 -2 -2 -2 -34 -24 -22 -32 -43 -36 -32 -22 -27 -2 -2 -2 -1 -0 -0 -0 -0 -0 -0 -1 -1 -3 -1 -0 -1 -0 -3 -1 -1 -1 -1 -0 -1 -1 -0 -0 -0 -0
-19 -21 -11 -3 -11 -11 -15 -3 -3 -5 -5 -40 -39 -27 -24 -43 -38 -29 -60 -5 -1 -1 -2 -1 -2 -0 -0 -0 -0 -0 -1 -0 -3 -4 -2 -1 -0 -0 -2 -2 -3 -2 -1 -2 -1 -1 -0 -0 -1
-30 -27 -3 -5 -14 -6 -11 -14 -2 -4 -5 -22 -36 -26 -14 -38 -45 -37 -60 -70 -101 -31 -39 -29 -0 -0 -0 -0 -0 -0 -2 -0 -1 -2 -0 -1 -3 -0 -0 -1 -1 -2 -3 -2 -2 -2 -3 -3 -2
-15 -3 -5 -4 -15 -9 -25 -4 -5 -2 -7 -29 -17 -15 -29 -41 -50 -31 -43 -51 -56 -41 -28 -11 -0 -0 -0 -0 -51 -8 -1 -1 -2 -1 -1 -5 -6 -15 -4 -1 -3 -2 -2 -5 -2 -3 -2 -3 -1
-23 -4 -8 -3 -21 -12 -18 -6 -15 -21 -19 -28 -11 -3 -8 -11 -28 -28 -31 -45 -40 -29 -26 -39 -48 -0 -28 -36 -8 -6 -2 -2 -1 -2 -5 -3 -18 -2 -0 -2 -2 -1 -6 -3 -6 -5 -5 -3 -1
-5 -12 -6 -3 -12 -17 -6 -2 -2 -17 -31 -28 -24 -2 -3 -4 -3 -18 -35 -39 -36 -27 -20 -28 -28 -36 -20 -22 -21 -18 -18 -11 -2 -15 -1 -10 -1 -0 -0 -1 -1 -8 -9 -2 -2 -3 -7 -2 -3
-0 -0 -4 -3 -5 -16 -3 -4 -3 -4 -22 -31 -26 -24 -8 -3 -1 -5 -27 -43 -48 -25 -26 -36 -30 -27 -26 -12 -1 -5 -6 -4 -29 -1 -4 -3 -1 -2 -2 -1 -8 -5 -8 -1 -2 -1 -2 -4 -7
-0 -3 -14 -33 -8 -4 -4 -14 -6 -3 -4 -4 -15 -30 -19 -2 -3 -4 -24 -44 -51 -20 -22 -10 -13 -17 -19 -3 -3 -1 -4 -2 -0 -0 -1 -6 -1 -2 -2 -2 -1 -1 -0 -0 -1 -4 -3 -1 -2
-5 -5 -0 -4 -6 -8 -8 -30 -4 -5 -9 -10 -20 -20 -3 -2 -4 -5 -19 -39 -37 -39 -21 -2 -16 -1 -1 -0 -1 -6 -6 -18 -6 -2 -2 -9 -3 -1 -0 -1 -2 -2 -0 -3 -2 -1 -5 -6 -1
-8 -15 -7 -3 -9 -6 -24 -8 -10 -6 -11 -87 -3 -0 -2 -2 -3 -6 -9 -5 -35 -3 -6 -5 -3 -1 -1 -0 -1 -3 -10 -0 -0 -6 -1 -9 -6 -1 -2 -1 -6 -1 -1 -1 -2 -2 -3 -8 -0
-5 -7 -3 -45 -11 -35 -45 -38 -0 -0 -50 -29 -3 -2 -2 -2 -6 -19 -51 -7 -4 -37 -81 -0 -3 -120 -0 -0 -11 -0 -4 -3 -4 -3 -4 -1 -3 -8 -0 -8 -27 -14 -2 -1 -6 -1 -6 -14 -1
-0 -14 -3 -36 -45 -20 -19 -26 -0 -2 -8 -0 -0 -2 -7 -2 -3 -15 -27 -47 -37 -38 -117 -14 -33 -1 -6 -2 -0 -13 -13 -11 -1 -4 -6 -2 -4 -3 -4 -4 -4 -7 -1 -3 -5 -1 -1 -10 -11
-9 -38 -9 -25 -11 -6 -24 -37 -16 -0 -0 -0 -35 -14 -2 -2 -3 -17 -26 -6 -9 -2 -6 -2 -2 -2 -2 -3 -16 -5 -3 -3 -3 -3 -2 -6 -4 -7 -7 -12 -48 -68 -2 -2 -3 -2 -26 -35 -6
-10 -29 -34 -15 -6 -31 -4 -21 -39 -0 -4 -56 -16 -29 -4 -15 -2 -0 -2 -2 -0 -23 -26 -10 -26 -5 -3 -4 -1 -2 -1 -14 -2 -5 -3 -2 -2 -12 -6 -13 -29 -3 -2 -90 -6 -9 -1 -0 -0
-12 -24 -37 -5 -6 -11 -9 -20 -0 -0 -28 -31 -3 -3 -10 -1 -3 -1 -4 -1 -39 -48 -100 -98 -0 -0 -0 -5 -3 -27 -1 -5 -1 -1 -0 -0 -5 -15 -22 -4 -1 -1 -1 -2 -2 -3 -0 -1 -0
-16 -9 -7 -8 -6 -5 -9 -13 -13 -32 -23 -37 -5 -2 -12 -17 -7 -2 -1 -29 -33 -28 -0 -0 -0 -0 -22 -2 -1 -2 -3 -1 -9 -9 -4 -2 -1 -1 -1 -1 -1 -4 -3 -4 -5 -2 -1 -1 -3
-0 -9 -22 -51 -5 -5 -6 -0 -13 -27 -15 -45 -3 -3 -4 -2 -6 -49 -64 -58 -21 -0 -0 -38 -94 -28 -2 -2 -2 -1 -5 -9 -1 -1 -1 -1 -1 -1 -1 -1 -2 -1 -8 -3 -2 -1 -1 -1 -1
-2 -2 -4 -4 -3 -61 -7 -12 -0 -66 -27 -55 -32 -3 -3 -3 -4 -16 -0 -0 -0 -0 -0 -4 -0 -2 -3 -2 -2 -2 -3 -2 -2 -2 -2 -2 -1 -1 -1 -1 -0 -1 -11 -1 -3 -2 -3 -2 -1
Wind_Speed
19 19 20 19 19 12 11 11 11 12 11 14 13 14 13 15 16 12 11 10 12 11 11 12 12 13 14 15 15 15 16 16 17 17 17 17 17 18 18 18 19 19 20 21 21 21 21 21 21
18 18 19 20 3 10 9 11 11 14 13 13 12 13 13 14 15 12 11 11 11 11 11 11 12 13 13 14 15 15 16 16 17 17 17 18 18 18 18 19 19 20 21 21 21 22 22 22 22
18 19 17 14 12 18 10 7 13 14 14 13 13 16 15 15 12 11 12 13 13 12 11 11 12 13 14 14 15 15 16 16 17 17 18 18 18 18 19 20 20 21 22 22 22 22 22 23 23
19 19 13 10 8 11 11 13 15 16 16 14 14 15 15 13 11 11 14 14 13 12 11 11 11 12 13 14 15 15 16 17 17 18 19 19 19 19 19 20 22 23 23 24 24 24 24 23 23
19 17 15 9 10 12 14 14 15 15 15 14 14 14 14 13 13 15 14 13 12 11 11 11 11 12 13 13 14 15 16 17 18 18 19 19 19 20 20 21 22 24 23 24 25 25 24 24 23
18 18 6 11 10 13 15 14 14 14 15 15 15 15 14 13 12 12 12 11 10 10 10 10 10 11 12 13 14 15 16 17 17 18 19 19 19 19 20 19 21 23 22 23 23 23 24 22 22
17 18 12 12 13 13 15 14 15 14 14 16 14 15 15 11 11 12 11 10 10 11 10 10 10 10 11 12 13 15 15 16 17 18 19 19 18 19 19 19 21 23 23 23 22 22 23 23 23
17 11 15 13 13 15 16 16 15 13 15 15 16 16 13 11 12 11 11 11 11 10 9 9 9 9 9 11 12 13 14 15 16 17 18 18 16 17 17 18 23 24 24 23 23 23 24 24 24
18 15 10 15 15 13 14 15 16 15 15 14 16 18 16 14 13 11 11 10 9 8 8 8 9 10 11 11 11 11 12 13 14 14 16 17 15 20 21 21 24 23 23 23 21 22 24 25 25
18 7 11 16 15 16 13 12 14 13 14 12 14 16 13 12 11 9 7 7 6 6 7 8 10 9 10 11 13 12 12 11 15 17 17 17 20 19 23 20 20 20 20 19 19 19 21 23 26
14 7 14 13 16 15 14 12 12 12 11 13 9 10 10 8 8 8 7 6 5 6 6 7 8 9 8 11 13 13 14 16 14 17 19 19 22 19 23 24 18 23 18 24 19 20 19 25 26
14 13 15 17 14 10 9 14 11 10 14 16 14 10 8 7 6 6 6 6 5 6 5 5 7 8 11 12 13 17 17 19 18 16 20 18 21 22 23 24 25 23 24 26 23 26 26 26 26
12 13 15 15 15 12 13 10 12 10 12 13 12 10 6 5 4 4 5 6 6 4 4 4 6 9 10 12 15 18 19 18 21 19 17 19 22 22 22 24 24 24 23 25 25 26 26 26 24
16 16 17 15 16 15 14 9 8 10 9 10 9 7 5 4 3 3 3 4 5 4 3 4 6 9 11 14 15 18 16 19 16 20 19 19 20 23 26 25 25 24 24 24 26 29 29 26 26
16 15 15 10 13 14 16 6 2 9 9 8 7 5 4 3 2 1 2 2 3 4 4 5 6 8 10 13 14 16 19 21 21 21 20 22 22 25 25 25 26 27 24 24 25 23 25 25 25
10 9 12 11 13 13 15 20 17 11 10 12 7 7 5 2 1 3 3 1 2 3 4 4 5 7 9 11 13 17 20 21 24 22 20 17 20 22 21 26 27 24 23 24 25 26 27 26 26
21 15 15 13 12 11 10 22 20 18 16 16 11 8 6 4 2 0 1 0 0 2 3 3 5 6 8 10 15 19 19 20 21 23 22 22 20 23 25 26 27 28 26 26 26 26 25 27 28
21 24 23 23 15 12 14 14 19 13 15 17 14 9 5 4 3 2 1 1 0 1 2 3 4 6 9 13 15 18 19 18 20 18 25 25 29 27 26 28 28 25 26 28 28 27 25 28 31
23 25 26 24 16 18 21 18 21 17 12 16 12 11 9 6 3 1 2 2 1 2 2 3 5 7 10 13 15 16 18 19 20 24 25 26 26 28 27 27 29 27 25 27 30 29 29 30 30
25 27 29 28 20 19 20 10 16 17 11 11 10 10 9 7 3 2 1 1 2 3 8 5 10 6 8 11 14 20 24 26 27 26 22 21 20 26 26 28 29 29 30 30 30 30 34 32 29
20 30 30 33 30 19 12 34 8 24 10 11 11 10 9 9 5 3 2 3 4 5 7 10 10 4 8 11 15 17 20 20 20 18 22 19 26 25 25 26 27 30 30 31 31 33 30 33 29
30 23 29 30 23 23 14 30 39 32 23 33 8 14 13 10 7 4 3 2 4 5 7 11 9 5 9 10 14 19 25 25 24 25 21 23 24 22 24 23 28 31 35 35 31 28 31 30 30
31 31 27 16 9 39 27 25 29 15 22 23 23 25 17 14 7 5 5 5 6 4 7 16 12 13 15 12 16 22 19 23 26 26 26 24 24 20 23 27 27 32 35 36 33 32 31 28 26
33 33 17 11 20 24 10 27 34 29 28 30 31 29 26 20 14 11 5 10 12 14 11 5 9 13 12 16 18 19 23 26 27 27 28 26 24 30 31 26 30 35 37 31 28 28 30 28 26
29 26 36 41 18 24 26 34 22 28 28 29 30 29 23 22 16 11 11 9 13 10 11 6 9 12 17 18 20 20 25 27 27 25 25 30 28 32 33 33 34 34 32 30 29 30 30 27 25
22 19 12 31 31 30 31 19 23 24 25 26 26 27 22 20 18 16 14 13 12 15 17 18 18 21 24 22 26 30 31 26 26 27 28 30 31 31 31 34 33 32 33 27 26 29 27 27 23
26 22 12 32 38 36 26 21 23 21 22 30 30 26 26 13 19 16 17 13 15 17 19 17 23 24 26 32 28 26 20 24 27 28 29 29 32 33 35 35 33 28 28 26 24 24 25 23 23
6 31 25 3 33 36 24 27 22 23 27 29 31 26 22 16 19 15 18 20 19 19 19 23 27 32 26 23 24 21 22 25 30 31 33 34 34 36 35 33 30 30 27 23 25 25 23 23 26
14 4 20 5 24 31 26 16 20 24 28 30 31 28 22 19 20 20 20 19 19 21 22 25 25 27 21 23 23 25 28 30 31 32 33 34 33 34 33 30 22 26 25 13 18 27 21 35 31
26 23 24 28 20 14 13 15 20 23 28 28 29 27 25 22 21 19 18 19 21 23 20 24 26 22 23 24 26 28 28 30 32 34 34 34 34 32 31 28 27 26 17 21 26 19 34 7 8
Wind_Direction
164 156 172 201 220 321 314 329 342 15 358 328 336 332 2 339 323 344 51 32 62 66 61 52 41 32 21 21 16 14 13 11 9 4 0 1 360 358 354 349 344 337 333 327 326 326 326 325 324
181 174 181 212 244 61 28 307 328 335 346 353 10 23 10 357 350 34 51 62 58 65 53 45 40 31 26 19 16 13 11 9 5 3 0 357 355 355 352 347 341 339 340 334 332 329 326 323 321
193 184 190 239 311 207 22 69 22 10 5 2 21 326 342 351 19 24 68 79 73 66 59 48 41 31 27 21 17 13 8 5 2 359 355 353 353 351 348 343 340 336 334 333 329 331 328 325 320
194 181 217 262 318 4 360 6 39 53 29 7 19 17 12 1 23 36 81 81 74 65 55 49 39 30 22 17 14 13 10 5 0 357 353 350 348 347 345 341 335 330 328 324 325 325 324 323 320
184 203 214 285 328 347 17 34 2 20 4 14 6 20 18 16 37 78 83 79 74 62 59 55 41 28 21 18 16 13 8 4 360 357 355 352 351 347 345 341 336 330 328 326 322 323 322 321 320
204 186 316 8 336 10 39 16 16 346 357 10 25 35 24 47 68 80 85 78 70 67 65 52 43 32 24 18 13 13 12 7 5 0 358 358 357 351 349 350 345 340 339 333 331 330 328 327 324
191 226 359 24 25 27 61 327 343 2 33 6 12 348 13 58 71 86 85 83 78 92 70 62 61 42 27 18 16 11 10 5 2 2 358 359 1 359 357 355 349 340 337 336 335 333 330 327 324
228 1 89 40 40 12 31 96 13 178 5 18 326 6 34 85 84 86 81 97 99 83 67 73 63 59 49 30 19 10 7 5 3 1 359 0 4 6 1 358 348 340 335 334 330 329 327 324 321
201 262 105 51 16 27 52 67 52 32 48 34 14 351 20 90 93 87 91 96 84 68 70 65 56 30 16 21 22 18 14 12 9 6 4 355 0 350 351 348 345 343 339 335 335 331 326 321 317
192 18 66 350 11 19 28 59 50 54 42 43 32 16 40 81 93 84 80 65 55 59 48 36 20 28 22 16 14 10 8 12 359 353 352 353 349 346 343 343 348 348 346 340 339 337 331 324 320
347 7 3 20 13 23 20 42 37 34 26 20 41 41 48 62 76 84 79 51 55 69 50 47 32 25 27 13 7 8 1 356 357 350 345 346 340 342 339 338 347 341 344 340 337 334 332 327 323
334 355 331 357 19 87 111 9 35 37 13 8 17 44 64 74 83 84 75 41 54 75 61 48 47 25 360 4 4 351 348 346 349 352 341 343 340 337 336 336 336 337 335 332 331 328 325 321 319
26 10 345 6 12 26 15 33 14 22 13 17 17 31 56 66 79 96 57 23 43 45 42 35 9 359 2 352 350 343 343 347 340 341 344 340 336 337 338 336 336 334 334 332 330 327 326 324 323
330 341 341 351 349 4 7 23 36 29 31 22 25 28 44 61 88 79 77 29 14 36 37 14 354 350 346 344 344 342 346 342 345 340 338 340 337 334 331 330 330 329 329 327 326 320 319 321 320
333 348 350 11 10 4 0 18 49 32 33 24 26 35 35 42 75 73 99 54 22 10 357 347 346 349 344 343 346 344 339 338 338 337 338 332 330 330 328 327 327 325 325 322 320 320 321 321 320
27 25 340 39 6 3 359 347 13 32 23 5 7 2 5 14 116 141 128 64 13 351 350 353 348 347 345 346 344 341 337 337 333 333 335 335 334 329 329 328 325 324 321 318 315 316 317 318 318
277 323 351 357 10 8 5 331 348 359 358 348 350 350 349 342 327 193 163 145 329 351 357 349 342 342 345 347 342 338 339 339 336 332 334 334 337 330 329 326 324 321 316 314 314 313 315 315 314
317 322 325 333 355 357 342 335 339 342 350 345 348 346 341 328 298 307 234 229 294 318 313 329 340 340 338 340 343 341 341 338 338 338 332 332 328 328 329 327 324 323 315 313 312 310 310 313 310
317 318 321 329 346 338 331 335 334 343 343 346 352 348 341 330 324 296 184 205 245 252 286 308 326 333 334 337 340 342 341 341 340 336 340 336 334 331 330 329 327 325 321 317 312 309 308 309 309
315 310 315 316 333 331 330 325 341 337 336 343 352 353 354 350 337 332 335 236 256 282 310 315 317 331 331 336 342 340 339 337 333 330 335 338 342 337 334 331 327 325 320 317 313 309 305 304 305
314 307 314 314 316 329 285 303 296 337 356 354 0 8 360 355 335 303 285 292 293 291 301 298 310 306 329 336 343 342 341 339 339 344 341 344 338 337 335 331 329 326 323 319 316 311 307 303 301
297 327 316 322 332 328 343 321 317 283 357 336 63 17 4 355 355 330 286 298 307 306 306 314 312 278 325 353 346 343 340 339 338 332 334 336 333 332 331 330 328 324 322 317 317 314 311 306 301
301 309 318 334 319 313 333 335 331 237 10 7 15 10 5 6 10 360 352 274 235 34 336 306 335 335 356 3 351 343 340 341 337 336 334 334 331 331 329 325 325 322 323 318 317 315 312 310 304
300 304 317 261 324 337 345 341 326 345 354 356 358 1 2 6 17 13 6 346 340 9 356 332 353 346 348 351 345 340 334 335 334 333 331 329 333 327 326 326 324 321 322 321 319 316 312 313 308
298 318 283 283 326 326 334 320 340 352 359 2 360 1 11 13 22 29 16 18 356 5 358 61 11 1 343 340 343 333 329 330 331 329 326 329 327 325 322 324 323 322 322 320 317 315 314 313 312
313 311 321 317 320 316 325 331 348 351 2 6 7 5 9 16 22 21 16 18 18 20 4 356 358 351 345 343 341 331 329 335 335 337 335 329 326 325 325 323 321 321 320 320 319 315 315 315 316
314 314 222 317 304 293 337 350 351 4 2 2 3 4 3 27 25 28 22 25 28 12 -0 0 347 341 331 331 331 338 342 340 337 335 334 331 328 326 323 323 322 322 320 321 320 318 315 319 315
323 307 268 288 300 295 331 338 350 358 352 356 357 7 13 12 17 20 25 22 13 10 358 344 337 331 332 336 341 349 347 342 338 335 331 328 328 325 323 324 323 321 322 325 320 316 320 318 310
331 28 335 306 343 325 337 1 5 359 354 352 355 4 12 18 19 16 12 8 6 355 347 340 342 340 357 353 351 348 341 337 336 335 333 330 330 327 325 326 326 323 323 318 324 315 319 257 298
305 328 327 327 347 351 334 349 1 0 356 1 2 5 5 11 16 17 14 11 359 350 355 349 351 357 357 353 348 344 345 342 338 335 333 330 328 328 327 326 324 324 323 327 320 325 294 282 309